Wolf Creek Observed Data For Previous 48 Hours

Caption
Day and Hour Reservoir Elevation (behind dam)* Tailwater Elevation (below dam)* Average Hourly Discharge*
2/16/2019 1 AM CST 736.89 562.89 28,100
2/16/2019 2 AM CST 736.90 562.90 28,100
2/16/2019 3 AM CST 736.91 562.91 28,100
2/16/2019 4 AM CST 736.92 562.92 28,100
2/16/2019 5 AM CST 736.93 562.93 28,100
2/16/2019 6 AM CST 736.94 562.94 28,100
2/16/2019 7 AM CST 736.92 562.82 28,100
2/16/2019 8 AM CST 736.92 562.82 28,100
2/16/2019 9 AM CST 736.90 562.80 28,100
2/16/2019 10 AM CST 736.90 562.80 28,100
2/16/2019 11 AM CST 736.90 562.90 28,100
2/16/2019 12 PM CST 736.90 562.90 28,100
2/16/2019 1 PM CST 736.90 562.90 28,100
2/16/2019 2 PM CST 736.90 562.80 28,100
2/16/2019 3 PM CST 736.88 562.88 28,100
2/16/2019 4 PM CST 736.88 562.98 28,100
2/16/2019 5 PM CST 736.88 562.88 28,100
2/16/2019 6 PM CST 736.88 562.88 28,100
2/16/2019 7 PM CST 736.88 562.88 28,100
2/16/2019 8 PM CST 736.88 562.88 28,100
2/16/2019 9 PM CST 736.88 562.88 28,100
2/16/2019 10 PM CST 736.88 562.88 28,100
2/16/2019 11 PM CST 736.88 562.88 28,100
2/17/2019 12 AM CST 736.88 562.88 28,100
2/17/2019 1 AM CST 736.87 562.87 28,100
2/17/2019 2 AM CST 736.87 562.87 28,100
2/17/2019 3 AM CST 736.86 562.86 28,100
2/17/2019 4 AM CST 736.86 562.86 28,100
2/17/2019 5 AM CST 736.85 562.85 28,100
2/17/2019 6 AM CST 736.85 562.85 28,100
2/17/2019 7 AM CST 736.85 562.85 28,100
2/17/2019 8 AM CST 736.83 562.93 28,100
2/17/2019 9 AM CST 736.83 562.93 28,100
2/17/2019 10 AM CST 736.84 562.94 28,100
2/17/2019 11 AM CST 736.84 563.04 28,100
2/17/2019 12 PM CST 736.84 563.04 28,100
2/17/2019 1 PM CST 736.87 562.97 28,100
2/17/2019 2 PM CST 736.89 562.99 28,100
2/17/2019 3 PM CST 736.91 563.01 28,100
2/17/2019 4 PM CST 736.95 563.05 28,100
2/17/2019 5 PM CST 737.02 563.12 28,100
2/17/2019 6 PM CST 737.09 563.29 28,130
2/17/2019 7 PM CST 737.18 563.28 28,230
2/17/2019 8 PM CST 737.28 563.38 28,230
2/17/2019 9 PM CST 737.38 563.38 28,260
2/17/2019 10 PM CST 737.47 563.37 28,330
2/17/2019 11 PM CST 737.56 563.36 28,360
2/18/2019 12 AM CST 737.68 563.48 28,390
2/18/2019 1 AM CST 737.78 563.48 28,490
2/18/2019 2 AM CST 737.88 563.48 28,490
2/18/2019 3 AM CST 738.03 563.43 28,440
2/18/2019 4 AM CST 738.12 563.52 28,510
2/18/2019 5 AM CST 738.22 563.52 28,540
2/18/2019 6 AM CST 738.32 563.52 28,570
2/18/2019 7 AM CST 738.38 563.58 28,570
2/18/2019 8 AM CST 738.48 563.58 28,670
2/18/2019 9 AM CST 738.58 563.58 28,670
2/18/2019 10 AM CST 738.66 563.66 28,700
2/18/2019 11 AM CST 738.73 563.53 28,700
2/18/2019 12 PM CST 738.83 563.53 28,800
2/18/2019 1 PM CST 738.93 563.53 28,800
2/18/2019 2 PM CST 739.00 563.50 28,710
2/18/2019 3 PM CST 739.08 563.58 28,780
2/18/2019 4 PM CST 739.08 563.58 28,780
2/18/2019 5 PM CST 739.08 563.58 28,780
2/18/2019 6 PM CST 739.08 563.58 28,780

Elevations are in feet above sea level. Discharges are in cubic feet per second and are reported at the end of the hour.